Погода в Усть-Паденьге

Россия / Архангельская область     61°54′31″N   42°38′37″E
темп.,
°C
ветер,
м/с
пор.,
м/с
влажн.,
%
обл.,
%
осадки,
мм/ч
давл.,
гПа
погр.,
м
5 августа, чт
чт500:00+10зюз39750 0.0 1013163
03:00+8з26821 0.0 1014125
06:00+11зсз26725 0.0 1016199
09:00+16зсз35515 0.0 10171110
12:00+19зсз363650 0.0 10162328
15:00+18зсз2548100 0.0 1017456
18:00+17зсз125896 0.0 101757
21:00+14сз1163100 0.0 101811
6 августа, пт
пт600:00+13ссз1170100 0.0 101911
03:00+11св2276100 0.0 101930
06:00+12св247798 0.0 1020165
09:00+16св346060 0.0 1020639
12:00+18всв3451100 0.0 10201085
15:00+18ююв345397 0.1 10201374
18:00+14ю2579100 0.4 1020233
21:00+12всв1191100 1.1 102025
7 августа, сб
сб700:00+12св2695100 0.3 1021184
03:00+11всв3990100 0.3 1022256
06:00+11всв3889100 0.1 1022274
09:00+12всв387895 0.1 1022332
12:00+18в464475 0.0 1022992
15:00+20в3539100 0.0 10211255
18:00+19всв265099 0.0 1020312
21:00+14в2564100 0.0 102180
8 августа, вс
вс800:00+12в2867100 0.0 1021163
03:00+12в31067100 0.0 1021220
06:00+12в31167100 0.0 1021335
09:00+11всв41396100 4.6 1019614
12:00+11всв51495100 3.4 1019791
15:00+12в51190100 3.8 1019750
18:00+12в51195100 1.0 1018533
21:00+11в41198100 8.2 1017456
9 августа, пн
пн900:00+11в4998100 9.4 1017380
03:00+11всв3799100 9.9 1016284
06:00+11всв3699100 0.9 1016259
09:00+12всв229798 1.0 1016295
12:00+14ссв2294100 0.0 1017402
15:00+14ссв2290100 0.1 1018499
18:00+14ссв2392100 0.0 1018322
21:00+13ссв2498100 0.0 1019154